Columbia, SC

8:38 AM EST on December 05, 2016 (GMT -0500)
Columbia Owens Downtown

Weather History for KCUB - December, 2012

Change the Weather History Date:

Thursday, December 6, 2012

  Actual Average Record
Temperature  
Mean Temperature 55 °F 50 °F  
Max Temperature 61 °F 61 °F 81 °F (2013)
Min Temperature 49 °F 40 °F 26 °F (2000)
Degree Days  
Heating Degree Days 10 15  
Month to date heating degree days 28 86  
Since 1 July heating degree days 462 457  
Cooling Degree Days 0 0  
Month to date cooling degree days 0 0  
Year to date cooling degree days 2516 2256  
Growing Degree Days 4 (Base 50)    
Moisture  
Dew Point 42 °F    
Average Humidity 63    
Maximum Humidity 80    
Minimum Humidity 50    
Precipitation  
Precipitation 0.00 in 0.11 in 0.17 in (1999)
Month to date precipitation 0.00 0.66  
Year to date precipitation 39.53 42.86  
Sea Level Pressure  
Sea Level Pressure 30.20 in    
Wind  
Wind Speed 4 mph (ENE)    
Max Wind Speed 12 mph    
Max Gust Speed 20 mph    
Visibility 10 miles    
Events      
T = Trace of Precipitation, MM = Missing Value Source: NWS Daily Summary

Daily Weather History Graph

Daily Weather History Graph

Search for Another Location

Airport or City:

Trip Planner

Search our weather history database for the weather conditions in past years. The results will help you decide how hot, cold, wet, or windy it might be!

Date:

Astronomy

Dec. 06, 2012 Rise Set
Actual Time 7:15 AM EST 5:14 PM EST
Civil Twilight 6:48 AM EST 5:42 PM EST
Nautical Twilight 6:17 AM EST 6:13 PM EST
Astronomical Twilight 5:46 AM EST 6:43 PM EST
Moon No Moon Rise 12:23 PM EST (12/6)
Length of Visible Light 10h 54m
Length of Day
9h 58m
Waning Gibbous, 49% of the Moon is Illuminated
Dec 6
Waning Gibbous
Dec 13
New
Dec 20
First Quarter
Dec 28
Full
Jan 4
Last Quarter

Hourly Weather History & Observations

Time (EST) Temp. Dew Point Humidity Pressure Visibility Wind Dir Wind Speed Gust Speed Precip Events Conditions
12:53 AM 57.9 °F 48.9 °F 72% 30.17 in 10.0 mi Variable 3.5 mph - N/A   Overcast
1:01 AM 57.2 °F 48.2 °F 72% 30.17 in 10.0 mi Variable 3.5 mph - N/A   Overcast
1:53 AM 57.9 °F 48.0 °F 70% 30.17 in 10.0 mi Calm Calm - N/A   Overcast
2:53 AM 57.9 °F 46.9 °F 67% 30.17 in 10.0 mi ENE 4.6 mph - N/A   Overcast
3:53 AM 57.9 °F 48.0 °F 70% 30.17 in 10.0 mi Calm Calm - N/A   Overcast
4:53 AM 57.0 °F 50.0 °F 77% 30.17 in 10.0 mi Variable 4.6 mph - N/A   Overcast
5:03 AM 57.2 °F 50.0 °F 77% 30.17 in 10.0 mi Variable 5.8 mph - N/A   Overcast
5:12 AM 57.2 °F 50.0 °F 77% 30.17 in 10.0 mi ENE 3.5 mph - N/A   Overcast
5:37 AM 57.2 °F 50.0 °F 77% 30.18 in 10.0 mi ENE 8.1 mph - N/A   Overcast
5:53 AM 57.0 °F 51.1 °F 81% 30.18 in 10.0 mi Variable 3.5 mph - N/A   Overcast
6:05 AM 57.2 °F 50.0 °F 77% 30.19 in 10.0 mi ENE 3.5 mph - N/A   Overcast
6:53 AM 57.0 °F 50.0 °F 77% 30.21 in 10.0 mi Variable 5.8 mph - N/A   Overcast
7:53 AM 55.9 °F 46.0 °F 69% 30.22 in 10.0 mi East 10.4 mph 18.4 mph N/A   Overcast
8:53 AM 55.9 °F 46.0 °F 69% 30.24 in 10.0 mi Variable 4.6 mph - N/A   Overcast
9:53 AM 55.9 °F 41.0 °F 57% 30.25 in 10.0 mi Variable 5.8 mph - N/A   Overcast
10:53 AM 57.0 °F 41.0 °F 55% 30.25 in 10.0 mi East 9.2 mph - N/A   Overcast
11:53 AM 57.9 °F 42.1 °F 56% 30.22 in 10.0 mi Variable 4.6 mph - N/A   Overcast
12:53 PM 59.0 °F 44.1 °F 58% 30.20 in 10.0 mi Variable 5.8 mph - N/A   Overcast
1:53 PM 59.0 °F 45.0 °F 60% 30.18 in 10.0 mi NNE 8.1 mph - N/A   Overcast
2:48 PM 59.0 °F 42.8 °F 55% 30.18 in 10.0 mi Variable 6.9 mph - N/A   Partly Cloudy
2:53 PM 59.0 °F 41.0 °F 51% 30.18 in 10.0 mi ENE 5.8 mph - N/A   Scattered Clouds
3:53 PM 57.0 °F 39.0 °F 51% 30.19 in 10.0 mi Variable 6.9 mph - N/A   Mostly Cloudy
4:00 PM 57.2 °F 39.2 °F 51% 30.19 in 10.0 mi Variable 5.8 mph - N/A   Mostly Cloudy
4:53 PM 55.9 °F 39.0 °F 53% 30.20 in 10.0 mi NE 4.6 mph - N/A   Overcast
5:18 PM 53.6 °F 39.2 °F 58% 30.20 in 10.0 mi Variable 3.5 mph - N/A   Scattered Clouds
5:53 PM 53.1 °F 37.9 °F 57% 30.20 in 10.0 mi Variable 4.6 mph - N/A   Mostly Cloudy
6:53 PM 53.1 °F 36.0 °F 52% 30.21 in 10.0 mi ENE 5.8 mph - N/A   Overcast
7:06 PM 53.6 °F 35.6 °F 51% 30.21 in 10.0 mi ENE 6.9 mph - N/A   Overcast
8:12 PM 51.8 °F 35.6 °F 54% 30.22 in 10.0 mi Variable 3.5 mph - N/A   Overcast
8:35 PM 51.8 °F 35.6 °F 54% 30.23 in 10.0 mi ENE 4.6 mph - N/A   Overcast
8:53 PM 51.1 °F 36.0 °F 56% 30.22 in 10.0 mi East 3.5 mph - N/A   Overcast
9:00 PM 51.8 °F 35.6 °F 54% 30.22 in 10.0 mi Calm Calm - N/A   Overcast
9:34 PM 51.8 °F 37.4 °F 58% 30.21 in 10.0 mi East 3.5 mph - N/A   Overcast
9:53 PM 50.0 °F 37.0 °F 61% 30.21 in 10.0 mi Calm Calm - N/A   Overcast
10:46 PM 50.0 °F 37.4 °F 62% 30.19 in 10.0 mi Calm Calm - N/A   Scattered Clouds
10:53 PM 50.0 °F 37.0 °F 61% 30.19 in 10.0 mi Calm Calm - N/A   Partly Cloudy
11:24 PM 50.0 °F 37.4 °F 62% 30.19 in 10.0 mi Calm Calm - N/A   Mostly Cloudy
11:53 PM 50.0 °F 37.0 °F 61% 30.19 in 10.0 mi Calm Calm - N/A   Overcast